EW7518 Weather Reports


time (UTC)temp
C
wind
direction
speed
KPH
gust
KPH
rain 1hr
cm
rain 24hr
cm
rain mn
cm
humidity
%
barometer
mb
20180625080709 18 0 6.4 12.9 0.00 0.00 0.00 80 1014.4
20180625080210 18 336 6.4 17.7 0.00 0.00 0.00 80 1014.3
20180625075708 17 331 6.4 17.7 0.00 0.00 0.00 81 1014.3
20180625075209 17 355 8.0 17.7 0.00 0.00 0.00 82 1014.3
20180625074708 17 323 6.4 14.5 0.00 0.00 0.00 82 1014.2
20180625074211 17 345 6.4 12.9 0.00 0.00 0.00 83 1014.2
20180625073710 17 321 6.4 12.9 0.00 0.00 0.00 83 1014.2
20180625073210 17 325 6.4 16.1 0.00 0.00 0.00 83 1014.2
20180625072709 17 340 6.4 19.3 0.00 0.00 0.00 84 1014.2
20180625072212 16 305 8.0 19.3 0.00 0.00 0.00 84 1014.2
20180625071709 16 329 8.0 19.3 0.00 0.00 0.00 84 1014.3
20180625071211 16 342 6.4 14.5 0.00 0.00 0.00 84 1014.3
20180625070709 16 322 6.4 14.5 0.00 0.00 0.00 84 1014.3
20180625070210 16 313 6.4 14.5 0.00 0.00 0.00 84 1014.2
20180625065709 16 332 6.4 14.5 0.00 0.00 0.00 85 1014.2
20180625065209 16 326 6.4 14.5 0.00 0.00 0.00 85 1014.2
20180625064709 16 331 6.4 11.3 0.00 0.00 0.00 85 1014.2
20180625064211 16 275 4.8 12.9 0.00 0.00 0.00 86 1014.2
20180625063710 16 329 6.4 12.9 0.00 0.00 0.00 86 1014.2
20180625063209 16 341 4.8 16.1 0.00 0.00 0.00 87 1014.0
20180625062709 16 294 4.8 16.1 0.00 0.00 0.00 87 1014.0
20180625062211 16 326 6.4 14.5 0.00 0.00 0.00 87 1014.0
20180625061709 15 338 8.0 12.9 0.00 0.00 0.00 87 1013.9
20180625061211 15 329 6.4 12.9 0.00 0.00 0.00 88 1013.9
20180625060711 15 333 6.4 12.9 0.00 0.00 0.00 88 1013.9
20180625060210 15 350 4.8 11.3 0.00 0.00 0.00 88 1013.8
20180625055709 15 342 4.8 11.3 0.00 0.00 0.00 88 1013.8
20180625055211 15 336 4.8 11.3 0.00 0.00 0.00 89 1013.8
20180625054709 15 315 3.2 6.4 0.00 0.00 0.00 89 1013.7
20180625054210 15 9 3.2 11.3 0.00 0.00 0.00 89 1013.7
20180625053709 15 298 3.2 11.3 0.00 0.00 0.00 89 1013.7
20180625053210 15 326 4.8 11.3 0.00 0.00 0.00 89 1013.5
20180625052711 15 336 4.8 11.3 0.00 0.00 0.00 89 1013.5
20180625052212 15 355 6.4 14.5 0.00 0.00 0.00 88 1013.5
20180625051711 15 322 6.4 14.5 0.00 0.00 0.00 88 1013.4
20180625051210 15 347 6.4 14.5 0.00 0.00 0.00 89 1013.4
20180625050710 15 321 8.0 14.5 0.00 0.00 0.00 89 1013.4
20180625050211 15 326 6.4 12.9 0.00 0.00 0.00 89 1013.4
20180625045709 15 325 6.4 14.5 0.00 0.00 0.00 89 1013.4
20180625045210 15 331 6.4 14.5 0.00 0.00 0.00 89 1013.4
20180625044710 15 327 6.4 14.5 0.00 0.00 0.00 89 1013.3
20180625044212 15 309 6.4 12.9 0.00 0.00 0.00 89 1013.3
20180625043710 15 335 4.8 12.9 0.00 0.00 0.00 90 1013.3
20180625043210 15 290 4.8 11.3 0.00 0.00 0.00 90 1013.1
20180625042709 15 322 4.8 12.9 0.00 0.00 0.00 90 1013.1
20180625042210 15 318 4.8 12.9 0.00 0.00 0.00 90 1013.1
20180625041709 15 326 4.8 16.1 0.00 0.00 0.00 89 1012.9
20180625041210 15 290 6.4 16.1 0.00 0.00 0.00 89 1012.9
20180625040710 15 309 8.0 16.1 0.00 0.00 0.00 89 1012.9
20180625040211 15 344 8.0 17.7 0.00 0.00 0.00 89 1012.9
20180625035709 15 323 6.4 17.7 0.00 0.00 0.00 90 1012.9
20180625035209 15 331 6.4 17.7 0.00 0.00 0.00 90 1012.9
20180625034708 15 325 8.0 17.7 0.00 0.00 0.00 90 1012.8
20180625034210 15 312 8.0 14.5 0.00 0.00 0.00 90 1012.8
20180625033708 15 287 8.0 14.5 0.00 0.00 0.00 90 1012.8
20180625033209 15 349 6.4 14.5 0.00 0.00 0.00 90 1012.8
20180625032708 15 329 6.4 14.5 0.00 0.00 0.00 90 1012.8
20180625032209 15 319 8.0 14.5 0.00 0.00 0.00 90 1012.8
20180625031708 15 344 6.4 14.5 0.00 0.00 0.00 90 1012.8
20180625031209 15 333 6.4 14.5 0.00 0.00 0.00 90 1012.8
20180625030708 15 335 6.4 14.5 0.00 0.00 0.00 90 1012.8
20180625030209 15 331 6.4 16.1 0.00 0.00 0.00 90 1012.9
20180625025708 15 323 4.8 16.1 0.00 0.00 0.00 89 1012.9
20180625025209 15 333 4.8 12.9 0.00 0.00 0.00 89 1012.9
20180625024708 15 342 4.8 12.9 0.00 0.00 0.00 89 1012.9
20180625024210 15 314 4.8 11.3 0.00 0.00 0.00 89 1012.9
20180625023707 15 314 4.8 11.3 0.00 0.00 0.00 89 1012.9
20180625023221 15 335 3.2 9.7 0.00 0.00 0.00 89 1013.0
20180625022708 15 311 3.2 9.7 0.00 0.00 0.00 88 1013.0
20180625022210 15 321 3.2 11.3 0.00 0.00 0.00 88 1013.0
20180625021708 15 336 3.2 11.3 0.00 0.00 0.00 88 1013.1
20180625021209 15 319 4.8 14.5 0.00 0.00 0.00 88 1013.1
20180625020708 15 340 6.4 14.5 0.00 0.00 0.00 88 1013.1
20180625020209 15 346 6.4 16.1 0.00 0.00 0.00 87 1013.2
20180625015708 15 324 8.0 16.1 0.00 0.00 0.00 87 1013.2
20180625015209 15 338 8.0 16.1 0.00 0.00 0.00 87 1013.2
20180625014707 16 323 8.0 16.1 0.00 0.00 0.00 87 1013.3
20180625014209 16 344 4.8 11.3 0.00 0.00 0.00 86 1013.3
20180625013708 16 304 4.8 11.3 0.00 0.00 0.00 86 1013.3
20180625013208 16 284 4.8 12.9 0.00 0.00 0.00 86 1013.3
20180625012709 16 346 6.4 12.9 0.00 0.00 0.00 85 1013.3
20180625012210 16 341 4.8 11.3 0.00 0.00 0.00 85 1013.3
20180625011708 16 311 3.2 11.3 0.00 0.00 0.00 84 1013.4
20180625011209 16 312 4.8 11.3 0.00 0.00 0.00 84 1013.4
20180625010708 16 315 6.4 11.3 0.00 0.00 0.00 83 1013.4
20180625010210 16 320 4.8 14.5 0.00 0.00 0.00 83 1013.6
20180625005708 16 337 4.8 14.5 0.00 0.00 0.00 83 1013.6
20180625005209 16 317 4.8 8.0 0.00 0.00 0.00 82 1013.6
20180625004708 16 265 3.2 8.0 0.00 0.00 0.00 82 1013.4
20180625004210 16 288 3.2 8.0 0.00 0.00 0.00 82 1013.4
20180625003708 16 298 3.2 11.3 0.00 0.00 0.00 82 1013.4
20180625003209 16 329 4.8 14.5 0.00 0.00 0.00 82 1013.5
20180625002708 16 274 4.8 14.5 0.00 0.00 0.00 82 1013.5
20180625002210 16 323 4.8 14.5 0.00 0.00 0.00 82 1013.5
20180625001708 16 279 4.8 14.5 0.00 0.00 0.00 82 1013.5
20180625001209 16 298 6.4 16.1 0.00 0.00 0.00 82 1013.5
20180625000708 16 293 6.4 16.1 0.00 0.00 0.00 82 1013.5
20180625000210 16 298 6.4 14.5 0.00 0.00 0.00 82 1013.4
20180624235708 16 300 6.4 14.5 0.00 0.00 0.00 82 1013.4
20180624235209 16 338 4.8 17.7 0.00 0.00 0.00 82 1013.4
20180624234708 16 313 8.0 17.7 0.00 0.00 0.00 82 1013.4
20180624234210 16 324 8.0 17.7 0.00 0.00 0.00 82 1013.4
20180624233708 16 325 6.4 16.1 0.00 0.00 0.00 82 1013.4
20180624233209 16 344 8.0 16.1 0.00 0.00 0.00 82 1013.5
20180624232708 17 318 8.0 16.1 0.00 0.00 0.00 82 1013.5
20180624232210 17 348 8.0 16.1 0.00 0.00 0.00 82 1013.5
20180624231709 17 317 6.4 16.1 0.00 0.00 0.00 82 1013.3
20180624231209 17 332 8.0 16.1 0.00 0.00 0.00 82 1013.3
20180624230708 17 0 8.0 16.1 0.00 0.00 0.00 82 1013.3
20180624230210 17 320 6.4 16.1 0.00 0.00 0.00 81 1013.4
20180624225708 17 337 8.0 16.1 0.00 0.00 0.00 81 1013.4
20180624225209 17 342 8.0 16.1 0.00 0.00 0.00 81 1013.4
20180624224708 17 262 8.0 16.1 0.00 0.00 0.00 80 1013.3
20180624224210 17 301 8.0 22.5 0.00 0.00 0.00 80 1013.3
20180624223708 17 276 8.0 27.4 0.00 0.00 0.00 80 1013.3
20180624223208 17 313 9.7 27.4 0.00 0.00 0.00 80 1013.3
20180624222708 17 5 9.7 27.4 0.00 0.00 0.00 79 1013.3
20180624222215 17 261 8.0 19.3 0.00 0.00 0.00 79 1013.3
20180624221708 17 346 8.0 19.3 0.00 0.00 0.00 79 1013.2
20180624221211 17 311 6.4 14.5 0.00 0.00 0.00 79 1013.2
20180624220708 17 303 6.4 12.9 0.00 0.00 0.00 79 1013.2
20180624220210 17 299 4.8 14.5 0.00 0.00 0.00 79 1013.1
20180624215710 17 283 4.8 14.5 0.00 0.00 0.00 78 1013.1
20180624215208 17 274 4.8 11.3 0.00 0.00 0.00 78 1013.1
20180624214708 18 309 4.8 12.9 0.00 0.00 0.00 78 1012.8
20180624214226 18 329 6.4 12.9 0.00 0.00 0.00 77 1012.8
20180624213707 18 280 6.4 17.7 0.00 0.00 0.00 77 1012.8
20180624213209 18 321 6.4 17.7 0.00 0.00 0.00 77 1012.8
20180624212708 18 323 6.4 17.7 0.00 0.00 0.00 77 1012.8
20180624212209 18 323 6.4 14.5 0.00 0.00 0.00 76 1012.8
20180624211708 18 341 6.4 11.3 0.00 0.00 0.00 76 1012.7
20180624211208 18 333 4.8 11.3 0.00 0.00 0.00 76 1012.7
20180624210708 18 340 4.8 11.3 0.00 0.00 0.00 76 1012.7
20180624210209 18 301 3.2 12.9 0.00 0.00 0.00 76 1012.3
20180624205708 18 327 3.2 12.9 0.00 0.00 0.00 76 1012.3
20180624205209 18 292 4.8 12.9 0.00 0.00 0.00 76 1012.3
20180624204708 18 340 6.4 12.9 0.00 0.00 0.00 76 1012.1
20180624204210 18 336 4.8 14.5 0.00 0.00 0.00 75 1012.1
20180624203713 18 344 4.8 14.5 0.00 0.00 0.00 75 1012.1
20180624203212 19 316 4.8 17.7 0.00 0.00 0.00 75 1011.9
20180624202708 19 325 4.8 17.7 0.00 0.00 0.00 75 1011.9
20180624202212 19 331 6.4 17.7 0.00 0.00 0.00 75 1011.9
20180624201708 19 303 6.4 17.7 0.00 0.00 0.00 74 1011.7
20180624201209 19 288 6.4 17.7 0.00 0.00 0.00 74 1011.7
20180624200708 19 315 6.4 17.7 0.00 0.00 0.00 74 1011.7
20180624200210 20 319 6.4 16.1 0.00 0.00 0.00 73 1011.7
20180624195708 20 316 6.4 16.1 0.00 0.00 0.00 72 1011.7
20180624195209 20 337 8.0 16.1 0.00 0.00 0.00 72 1011.7
20180624194708 20 337 6.4 14.5 0.00 0.00 0.00 71 1011.7
20180624194218 20 329 6.4 14.5 0.00 0.00 0.00 70 1011.7
20180624193707 20 303 6.4 17.7 0.00 0.00 0.00 70 1011.7
20180624193209 21 286 6.4 17.7 0.00 0.00 0.00 69 1011.7
20180624192708 21 286 6.4 17.7 0.00 0.00 0.00 69 1011.7
20180624192209 21 347 6.4 17.7 0.00 0.00 0.00 68 1011.7
20180624191708 21 317 8.0 17.7 0.00 0.00 0.00 68 1011.6
20180624191209 21 315 8.0 17.7 0.00 0.00 0.00 67 1011.6
20180624190708 22 269 6.4 17.7 0.00 0.00 0.00 66 1011.6
20180624190209 22 314 6.4 17.7 0.00 0.00 0.00 65 1011.4
20180624185708 22 277 6.4 17.7 0.00 0.00 0.00 64 1011.4
20180624185209 23 317 6.4 17.7 0.00 0.00 0.00 64 1011.4
20180624184708 23 276 6.4 17.7 0.00 0.00 0.00 63 1011.2
20180624184210 23 294 6.4 17.7 0.00 0.00 0.00 62 1011.2
20180624183708 24 296 6.4 17.7 0.00 0.00 0.00 61 1011.2
20180624183209 25 319 4.8 11.3 0.00 0.00 0.00 60 1011.2
20180624182708 25 327 4.8 11.3 0.00 0.00 0.00 60 1011.2
20180624182210 25 277 4.8 11.3 0.00 0.00 0.00 64 1011.2
20180624181708 26 236 6.4 12.9 0.00 0.00 0.00 64 1011.2
20180624181210 26 232 6.4 12.9 0.00 0.00 0.00 62 1011.2
20180624180708 26 207 4.8 11.3 0.00 0.00 0.00 61 1011.2
20180624180211 27 226 4.8 14.5 0.00 0.00 0.00 61 1011.2
20180624175708 27 203 4.8 14.5 0.00 0.00 0.00 61 1011.2
20180624175210 27 242 6.4 16.1 0.00 0.00 0.00 59 1011.2
20180624174707 28 206 6.4 16.1 0.00 0.00 0.00 58 1011.1
20180624174214 28 254 4.8 11.3 0.00 0.00 0.00 57 1011.1
20180624173707 28 238 3.2 11.3 0.00 0.00 0.00 56 1011.1
20180624173209 28 251 1.6 8.0 0.00 0.00 0.00 56 1011.1
20180624172708 28 205 1.6 8.0 0.00 0.00 0.00 57 1011.1
20180624172209 28 190 3.2 11.3 0.00 0.00 0.00 56 1011.1
20180624171709 28 181 3.2 11.3 0.00 0.00 0.00 57 1011.1
20180624171209 28 130 1.6 9.7 0.00 0.00 0.00 57 1011.1
20180624170708 28 176 1.6 9.7 0.00 0.00 0.00 57 1011.1
20180624170209 28 200 3.2 9.7 0.00 0.00 0.00 57 1011.2
20180624165708 28 186 3.2 9.7 0.00 0.00 0.00 56 1011.2
20180624165209 28 143 1.6 8.0 0.00 0.00 0.00 56 1011.2
20180624164708 28 246 3.2 8.0 0.00 0.00 0.00 55 1011.4
20180624164209 28 174 3.2 9.7 0.00 0.00 0.00 55 1011.4
20180624163708 28 163 4.8 9.7 0.00 0.00 0.00 56 1011.4
20180624163209 28 157 4.8 9.7 0.00 0.00 0.00 57 1011.5
20180624162708 28 142 4.8 9.7 0.00 0.00 0.00 57 1011.5
20180624162209 28 223 4.8 12.9 0.00 0.00 0.00 57 1011.5
20180624161708 28 189 3.2 12.9 0.00 0.00 0.00 58 1011.6
20180624161208 28 146 4.8 12.9 0.00 0.00 0.00 58 1011.6
20180624160708 28 259 3.2 9.7 0.00 0.00 0.00 57 1011.6
20180624160209 28 145 1.6 12.9 0.00 0.00 0.00 58 1011.7
20180624155708 28 184 4.8 12.9 0.00 0.00 0.00 56 1011.7
20180624155208 28 215 4.8 12.9 0.00 0.00 0.00 58 1011.7
20180624154708 28 157 4.8 11.3 0.00 0.00 0.00 58 1011.7
20180624154210 28 217 4.8 12.9 0.00 0.00 0.00 57 1011.7
20180624153707 28 147 4.8 12.9 0.00 0.00 0.00 57 1011.7
20180624153212 28 151 4.8 14.5 0.00 0.00 0.00 58 1011.8
20180624152708 28 183 6.4 14.5 0.00 0.00 0.00 57 1011.8
20180624152210 28 150 6.4 17.7 0.00 0.00 0.00 57 1011.8
20180624151713 28 175 8.0 17.7 0.00 0.00 0.00 57 1011.8
20180624151209 28 206 8.0 17.7 0.00 0.00 0.00 56 1011.8
20180624150708 28 161 8.0 24.1 0.00 0.00 0.00 56 1011.8
20180624150211 28 190 9.7 22.5 0.00 0.00 0.00 55 1012.0
20180624145708 29 211 9.7 22.5 0.00 0.00 0.00 54 1012.0
20180624145209 30 163 8.0 19.3 0.00 0.00 0.00 53 1012.0
20180624144708 30 198 8.0 19.3 0.00 0.00 0.00 51 1012.0
20180624144210 30 157 9.7 22.5 0.00 0.00 0.00 52 1012.0
20180624143707 30 175 9.7 22.5 0.00 0.00 0.00 51 1012.0
20180624143209 30 134 11.3 25.7 0.00 0.00 0.00 51 1012.1
20180624142708 30 214 11.3 25.7 0.00 0.00 0.00 51 1012.1
20180624142209 30 169 11.3 27.4 0.00 0.00 0.00 50 1012.1
20180624141708 30 128 12.9 27.4 0.00 0.00 0.00 49 1012.3
20180624141209 30 150 12.9 27.4 0.00 0.00 0.00 49 1012.3
20180624140708 30 166 11.3 33.8 0.00 0.00 0.00 49 1012.3
20180624140210 30 85 12.9 38.6 0.00 0.00 0.00 50 1012.3
20180624135708 30 91 12.9 38.6 0.00 0.00 0.00 49 1012.3
20180624135209 30 112 12.9 38.6 0.00 0.00 0.00 50 1012.3
20180624134708 30 106 16.1 38.6 0.00 0.00 0.00 50 1012.3
20180624134212 30 90 16.1 37.0 0.00 0.00 0.00 49 1012.3
20180624133708 30 77 17.7 40.2 0.00 0.00 0.00 49 1012.3
20180624133209 30 114 17.7 38.6 0.00 0.00 0.00 48 1012.6
20180624132708 30 82 19.3 38.6 0.00 0.00 0.00 48 1012.6
20180624132213 30 124 19.3 38.6 0.00 0.00 0.00 50 1012.6
20180624131710 30 130 14.5 38.6 0.00 0.00 0.00 49 1012.5
20180624131209 30 83 16.1 40.2 0.00 0.00 0.00 49 1012.5
20180624130708 30 80 19.3 40.2 0.00 0.00 0.00 49 1012.5
20180624130209 30 92 19.3 40.2 0.00 0.00 0.00 48 1012.7
20180624125707 30 86 19.3 40.2 0.00 0.00 0.00 48 1012.7
20180624125209 30 74 17.7 40.2 0.00 0.00 0.00 48 1012.7
20180624124708 30 107 19.3 40.2 0.00 0.00 0.00 47 1012.6
20180624124209 30 128 19.3 38.6 0.00 0.00 0.00 46 1012.6
20180624123709 30 86 17.7 38.6 0.00 0.00 0.00 47 1012.6
20180624123208 30 106 17.7 38.6 0.00 0.00 0.00 47 1012.7
20180624122708 30 146 17.7 38.6 0.00 0.00 0.00 46 1012.7
20180624122209 30 110 20.9 38.6 0.00 0.00 0.00 46 1012.7
20180624121708 30 84 22.5 38.6 0.00 0.00 0.00 47 1012.8
20180624121209 30 98 19.3 38.6 0.00 0.00 0.00 46 1012.8
20180624120708 30 88 16.1 30.6 0.00 0.00 0.00 47 1012.8
20180624120210 30 78 16.1 33.8 0.00 0.00 0.00 47 1012.8
20180624115709 30 82 14.5 33.8 0.00 0.00 0.00 46 1012.8
20180624115210 30 86 14.5 38.6 0.00 0.00 0.00 47 1012.8
20180624114708 30 77 14.5 38.6 0.00 0.00 0.00 47 1012.8
20180624114209 30 113 16.1 38.6 0.00 0.00 0.00 47 1012.8
20180624113710 30 159 17.7 35.4 0.00 0.00 0.00 47 1012.8
20180624113209 30 120 19.3 35.4 0.00 0.00 0.00 47 1012.8
20180624112708 30 94 17.7 35.4 0.00 0.00 0.00 46 1012.8
20180624112212 30 80 16.1 30.6 0.00 0.00 0.00 46 1012.8
20180624111709 30 106 14.5 27.4 0.00 0.00 0.00 46 1012.8
20180624111209 30 126 12.9 27.4 0.00 0.00 0.00 47 1012.8
20180624110708 30 135 11.3 25.7 0.00 0.00 0.00 48 1012.8
20180624110209 30 142 11.3 24.1 0.00 0.00 0.00 49 1012.8
20180624105726 30 137 12.9 24.1 0.00 0.00 0.00 49 1012.8
20180624105208 30 115 9.7 25.7 0.00 0.00 0.00 48 1012.8
20180624104708 30 90 11.3 25.7 0.00 0.00 0.00 50 1012.9
20180624104212 30 145 11.3 25.7 0.00 0.00 0.00 49 1012.9
20180624103710 29 121 9.7 24.1 0.00 0.00 0.00 51 1012.9
20180624103209 29 129 8.0 20.9 0.00 0.00 0.00 50 1012.9
20180624102708 29 114 8.0 20.9 0.00 0.00 0.00 53 1012.9
20180624102211 29 80 9.7 20.9 0.00 0.00 0.00 53 1012.9
20180624101707 28 92 8.0 17.7 0.00 0.00 0.00 54 1012.8
20180624101208 28 67 8.0 16.1 0.00 0.00 0.00 56 1012.8
20180624100708 28 105 8.0 17.7 0.00 0.00 0.00 55 1012.8
20180624100210 28 101 9.7 17.7 0.00 0.00 0.00 56 1012.8
20180624095708 27 123 6.4 17.7 0.00 0.00 0.00 57 1012.8
20180624095209 27 123 4.8 14.5 0.00 0.00 0.00 59 1012.8
20180624094708 27 140 4.8 14.5 0.00 0.00 0.00 58 1012.7
20180624094210 27 184 4.8 14.5 0.00 0.00 0.00 61 1012.7
20180624093707 27 54 3.2 17.7 0.00 0.00 0.00 62 1012.7
20180624093209 26 89 3.2 12.9 0.00 0.00 0.00 62 1012.8
20180624092709 26 89 4.8 12.9 0.00 0.00 0.00 61 1012.8
20180624092209 26 160 4.8 12.9 0.00 0.00 0.00 62 1012.8
20180624091209 25 69 1.6 11.3 0.00 0.00 0.00 66 1012.8
20180624090708 25 159 3.2 11.3 0.00 0.00 0.00 63 1012.8
20180624090209 25 122 3.2 9.7 0.00 0.00 0.00 64 1012.8
20180624085709 25 130 1.6 9.7 0.00 0.00 0.00 65 1012.8
20180624085208 25 99 3.2 9.7 0.00 0.00 0.00 67 1012.8
20180624084707 24 132 1.6 8.0 0.00 0.00 0.00 68 1012.9
20180624084210 24 103 0.0 9.7 0.00 0.00 0.00 67 1012.9
20180624083708 24 104 1.6 9.7 0.00 0.00 0.00 69 1012.9
20180624083209 23 92 1.6 4.8 0.00 0.00 0.00 70 1012.8
20180624082708 23 74 1.6 4.8 0.00 0.00 0.00 71 1012.8
20180624082210 23 161 0.0 4.8 0.00 0.00 0.00 70 1012.8
20180624081708 23 160 1.6 8.0 0.00 0.00 0.00 70 1012.8
20180624081209 23 156 3.2 8.0 0.00 0.00 0.00 71 1012.8